Regional Weather Roundup
Issued by NWS

Home | Current Version | Previous Version | Text Only | Print | Product List | Glossary Off
Versions: 1 2 3 4 5 6 7 8 9 10 11 12 13 14 15 16 17 18 19 20 21 22 23 24 25 26 27 28 29 30 31 32 33 34 35 36 37 38 39 40 41 42 43 44 45 46 47 48 49 50

000
ASUS44 KMEG 210700
RWRTN
TENNESSEE HOURLY STATE WEATHER ROUNDUP
NATIONAL WEATHER SERVICE MEMPHIS TN
200 AM CDT SAT OCT 21 2017

TNZ002-004-019-021-049-052-054-088>092-210800-
WEST TENNESSEE

CITY           SKY/WX    TMP DP  RH WIND       PRES   REMARKS
MEMPHIS INTL   MOCLDY    65  55  70 S9        30.09S
NWS MEMPHIS      N/A     61 N/A N/A MISG        N/A
JACKSON        CLOUDY    54  51  90 CALM      30.13R
DYERSBURG      PTCLDY    60  51  72 SE5       30.12R
$$

TNZ008-025-027-028-033-062-065-066-210800-
NORTH MIDDLE TENNESSEE

CITY           SKY/WX    TMP DP  RH WIND       PRES   REMARKS
NASHVILLE      MOCLDY    51  48  89 S5        30.18S
CLARKSVILLE    PTCLDY    50  48  93 SE5       30.16R
SMYRNA         PTCLDY    47  47 100 CALM      30.19S
CROSSVILLE     CLOUDY    49  46  90 CALM      30.24S
$$

TNZ061-075-076-078-094-096-097-210800-
SOUTH MIDDLE TENNESSEE

CITY           SKY/WX    TMP DP  RH WIND       PRES   REMARKS
TULLAHOMA      CLEAR     45  43  93 CALM      30.21R
WINCHESTER     CLEAR     48  46  93 CALM        N/A
$$

TNZ017-018-042-046-047-210800-
NORTHEAST TENNESSEE

CITY           SKY/WX    TMP DP  RH WIND       PRES   REMARKS
TRI CITIES     PTCLDY    44  44 100 CALM      30.26S
$$

TNZ012-013-036-069-073-074-210800-
CENTRAL EAST TENNESSEE

CITY           SKY/WX    TMP DP  RH WIND       PRES   REMARKS
KNOXVILLE      CLOUDY    52  52 100 NE3       30.22R
$$

TNZ083-085-099-210800-
SOUTHEAST TENNESSEE

CITY           SKY/WX    TMP DP  RH WIND       PRES   REMARKS
CHATTANOOGA    PTCLDY    53  51  93 CALM      30.23R
$$

SKY/WX REPORTED AS FAIR MEANS FEW OR NO CLOUDS BELOW
12 THOUSAND FEET.





USA.gov is the U.S. government's official web portal to all federal, state and local government web resources and services.